LEMUR-2-HUBBLE-5 (64840 NORAD) Tracking and Keplerian Element Data

This shows tracking and keplerian element data for the satellite.

Feedback or suggestion? Click here.




ElementValue
Catalog64840
NameLEMUR-2-HUBBLE-5
Epoch Orbit2719
Epoch Day354.24043146
Epoch Year2025
RAAN105.9488
Inclination97.7586
Eccentricity0.0005168
Argument of Perigee201.8538
Mean Anonmoly158.2462
Mean Motion14.933451
Decay Rate1.896E-05
L11 64840U 25135BT 25354.24043146 .00001896 00000+0 18624-3 0 9998
L22 64840 97.7586 105.9488 0005168 201.8538 158.2462 14.93345100 27195



Live tracking and technical data element details for LEMUR-2-HUBBLE-5 (NORAD 64840). LEMUR-2-HUBBLE-5 can be tracked NOW for your location showing map with azimuth and elevation plus other details from your city location.







IsCatalogInMostPopularTable: catalog: 64840, numindb: 3
Update: records affected: 1



GetName: 64840 LEMUR-2-HUBBLE-5

Hit Count: updated at: Mon, 20 Apr 2026 09:48:09 GMT